TimeCST,TemperatureF,Dew PointF,Humidity,Sea Level PressureIn,VisibilityMPH,Wind Direction,Wind SpeedMPH,Gust SpeedMPH,PrecipitationIn,Events,Conditions,WindDirDegrees,DateUTC
12:15 AM,24.6,21.2,87,29.92,10.0,Calm,Calm,-,N/A,,Clear,0,2013-02-17 06:15:00
12:35 AM,24.4,21.6,89,29.92,10.0,North,3.5,-,N/A,,Clear,360,2013-02-17 06:35:00
12:55 AM,24.1,20.7,87,29.92,10.0,NE,5.8,-,N/A,,Clear,50,2013-02-17 06:55:00
1:15 AM,24.1,20.3,85,29.92,10.0,North,3.5,-,N/A,,Clear,360,2013-02-17 07:15:00
1:35 AM,23.4,20.1,87,29.92,10.0,Calm,Calm,-,N/A,,Clear,0,2013-02-17 07:35:00
1:55 AM,22.3,19.4,89,29.91,10.0,Calm,Calm,-,N/A,,Clear,0,2013-02-17 07:55:00
2:15 AM,22.8,19.9,89,29.91,10.0,WSW,3.5,-,N/A,,Clear,240,2013-02-17 08:15:00
2:35 AM,23.4,20.3,88,29.90,10.0,West,4.6,-,N/A,,Clear,260,2013-02-17 08:35:00
2:55 AM,22.5,19.2,87,29.90,10.0,Calm,Calm,-,N/A,,Clear,0,2013-02-17 08:55:00
3:15 AM,21.9,19.4,90,29.89,10.0,Calm,Calm,-,N/A,,Clear,0,2013-02-17 09:15:00
3:35 AM,22.1,19.4,89,29.88,10.0,Calm,Calm,-,N/A,,Clear,0,2013-02-17 09:35:00
3:55 AM,22.1,19.4,89,29.86,10.0,NW,3.5,-,N/A,,Clear,310,2013-02-17 09:55:00
4:15 AM,21.4,18.7,89,29.85,10.0,Calm,Calm,-,N/A,,Clear,0,2013-02-17 10:15:00
4:35 AM,20.8,18.3,90,29.85,10.0,NW,3.5,-,N/A,,Clear,320,2013-02-17 10:35:00
4:55 AM,20.8,18.5,91,29.85,10.0,WNW,3.5,-,N/A,,Clear,300,2013-02-17 10:55:00
5:15 AM,20.1,17.6,90,29.85,10.0,West,4.6,-,N/A,,Clear,280,2013-02-17 11:15:00
5:35 AM,21.0,18.9,91,29.84,10.0,West,4.6,-,N/A,,Clear,260,2013-02-17 11:35:00
5:55 AM,21.9,19.6,91,29.85,10.0,West,10.4,-,N/A,,Clear,260,2013-02-17 11:55:00
6:15 AM,23.5,21.2,91,29.84,10.0,West,4.6,-,N/A,,Clear,260,2013-02-17 12:15:00
6:35 AM,23.0,20.3,89,29.83,10.0,Calm,Calm,-,N/A,,Clear,0,2013-02-17 12:35:00
6:55 AM,20.3,18.3,92,29.83,10.0,Calm,Calm,-,N/A,,Clear,0,2013-02-17 12:55:00
7:15 AM,20.5,18.3,91,29.82,10.0,North,3.5,-,N/A,,Clear,10,2013-02-17 13:15:00
7:35 AM,20.8,18.9,92,29.81,10.0,Calm,Calm,-,N/A,,Clear,0,2013-02-17 13:35:00
7:55 AM,21.0,19.0,92,29.81,10.0,Calm,Calm,-,N/A,,Clear,0,2013-02-17 13:55:00
8:15 AM,23.7,21.4,91,29.80,10.0,Calm,Calm,-,N/A,,Clear,0,2013-02-17 14:15:00
8:35 AM,25.9,23.5,91,29.80,10.0,West,3.5,-,N/A,,Clear,270,2013-02-17 14:35:00
8:55 AM,30.0,26.6,87,29.79,10.0,Calm,Calm,-,N/A,,Clear,0,2013-02-17 14:55:00
9:15 AM,32.5,27.7,82,29.79,10.0,West,4.6,-,N/A,,Clear,260,2013-02-17 15:15:00
9:35 AM,33.8,28.4,81,29.79,10.0,West,4.6,-,N/A,,Clear,280,2013-02-17 15:35:00
9:55 AM,36.9,29.1,74,29.78,10.0,Calm,Calm,-,N/A,,Clear,0,2013-02-17 15:55:00
10:15 AM,39.6,29.1,66,29.77,10.0,SW,3.5,-,N/A,,Clear,230,2013-02-17 16:15:00
10:35 AM,42.8,30.2,61,29.76,10.0,South,3.5,-,N/A,,Clear,190,2013-02-17 16:35:00
10:55 AM,47.1,28.4,48,29.75,10.0,SE,4.6,-,N/A,,Clear,140,2013-02-17 16:55:00
11:15 AM,53.2,25.9,35,29.73,10.0,SSW,10.4,-,N/A,,Clear,200,2013-02-17 17:15:00
11:35 AM,56.3,25.0,30,29.72,10.0,SSW,10.4,-,N/A,,Clear,210,2013-02-17 17:35:00
11:55 AM,56.3,23.4,28,29.71,10.0,SW,13.8,20.7,N/A,,Clear,220,2013-02-17 17:55:00
12:15 PM,60.3,24.6,26,29.69,10.0,SW,18.4,24.2,N/A,,Clear,220,2013-02-17 18:15:00
12:55 PM,60.4,21.2,22,29.67,10.0,SW,17.3,27.6,N/A,,Clear,220,2013-02-17 18:55:00
1:15 PM,59.7,21.4,23,29.66,10.0,SSW,23.0,27.6,N/A,,Clear,210,2013-02-17 19:15:00
1:35 PM,60.4,22.6,23,29.64,10.0,SSW,18.4,26.5,N/A,,Clear,210,2013-02-17 19:35:00
1:55 PM,60.8,22.6,23,29.62,10.0,SW,17.3,23.0,N/A,,Clear,220,2013-02-17 19:55:00
2:15 PM,62.4,23.2,22,29.62,10.0,SSW,16.1,24.2,N/A,,Clear,200,2013-02-17 20:15:00
2:35 PM,61.9,23.5,23,29.61,10.0,SSW,15.0,20.7,N/A,,Clear,200,2013-02-17 20:35:00
2:55 PM,60.8,23.9,24,29.60,10.0,SSW,11.5,-,N/A,,Clear,210,2013-02-17 20:55:00
3:15 PM,61.5,23.7,24,29.59,10.0,SSW,9.2,-,N/A,,Clear,210,2013-02-17 21:15:00
3:35 PM,61.7,23.5,23,29.59,10.0,WSW,3.5,-,N/A,,Clear,240,2013-02-17 21:35:00
3:55 PM,62.1,23.4,23,29.58,10.0,Calm,Calm,-,N/A,,Clear,0,2013-02-17 21:55:00
4:15 PM,62.1,23.9,23,29.57,10.0,Calm,Calm,-,N/A,,Clear,0,2013-02-17 22:15:00
4:35 PM,61.9,24.4,24,29.56,10.0,Calm,Calm,-,N/A,,Clear,0,2013-02-17 22:35:00
4:55 PM,61.2,24.6,25,29.55,10.0,Calm,Calm,-,N/A,,Clear,0,2013-02-17 22:55:00
5:15 PM,57.6,26.4,30,29.55,10.0,East,3.5,-,N/A,,Clear,100,2013-02-17 23:15:00
5:35 PM,56.5,25.2,30,29.54,10.0,East,3.5,-,N/A,,Clear,90,2013-02-17 23:35:00
5:55 PM,51.1,27.0,39,29.54,10.0,East,6.9,-,N/A,,Clear,100,2013-02-17 23:55:00
6:15 PM,48.0,26.1,42,29.53,10.0,East,6.9,-,N/A,,Clear,90,2013-02-18 00:15:00
6:35 PM,46.9,24.8,42,29.53,10.0,East,5.8,-,N/A,,Clear,80,2013-02-18 00:35:00
6:55 PM,44.8,25.2,46,29.53,10.0,East,6.9,-,N/A,,Clear,80,2013-02-18 00:55:00
7:15 PM,43.3,24.8,48,29.53,10.0,East,6.9,-,N/A,,Clear,80,2013-02-18 01:15:00
7:35 PM,41.5,24.1,50,29.54,10.0,East,4.6,-,N/A,,Clear,100,2013-02-18 01:35:00
7:55 PM,42.8,21.7,43,29.53,10.0,ENE,3.5,-,N/A,,Clear,70,2013-02-18 01:55:00
8:15 PM,38.3,22.1,52,29.54,10.0,NNE,5.8,-,N/A,,Clear,30,2013-02-18 02:15:00
8:35 PM,37.8,22.8,55,29.53,10.0,NNE,5.8,-,N/A,,Clear,30,2013-02-18 02:35:00
9:15 PM,41.5,23.7,49,29.53,10.0,NE,10.4,-,N/A,,Clear,40,2013-02-18 03:15:00
9:35 PM,44.1,23.7,45,29.53,10.0,NE,9.2,-,N/A,,Clear,40,2013-02-18 03:35:00
9:55 PM,43.3,23.7,46,29.52,10.0,NNE,5.8,-,N/A,,Clear,30,2013-02-18 03:55:00
10:15 PM,41.4,23.9,50,29.53,10.0,WNW,12.7,-,N/A,,Clear,290,2013-02-18 04:15:00
10:35 PM,45.0,23.0,42,29.55,10.0,North,24.2,31.1,N/A,,Clear,350,2013-02-18 04:35:00
10:55 PM,47.3,24.1,40,29.55,10.0,North,25.3,32.2,N/A,,Clear,360,2013-02-18 04:55:00
11:15 PM,45.0,28.0,52,29.56,10.0,North,27.6,34.5,N/A,,Clear,360,2013-02-18 05:15:00
11:35 PM,43.9,29.7,57,29.56,10.0,North,31.1,39.1,N/A,,Clear,360,2013-02-18 05:35:00
11:55 PM,43.2,29.3,58,29.57,10.0,North,27.6,36.8,N/A,,Clear,360,2013-02-18 05:55:00